Location: Crocus Hill
(18.2167°N, 63.0667°W)
Time: 21:53:10
(UTC+00:00)

SL-16 R/B - Pass Details

Date: 26 January 2020
Orbit: 842 x 846 km, 71.0° (Epoch: 19 February)

Event Time Altitude Azimuth Distance (km) Brightness Sun altitude
Exits shadow 09:52:34 18° 289° (WNW) 1,956 3.4 -13.1°
Maximum altitude 09:52:50 18° 293° (WNW) 1,953 3.5 -13.0°
Drops below altitude 10° 09:56:35 10° 335° (NNW) 2,459 4.2 -12.2°
Sets 09:59:51 0° 354° (N) 3,396 5.1 -11.4°
